Location: Bamobli
(6.6379°N, 10.9396°W)
Time: 22:49:24
(UTC+00:00)

Envisat - Pass Details

Date: 13 March 2021
Orbit: 764 x 766 km, 98.1° (Epoch: 12 April)

Event Time Altitude Azimuth Distance (km) Brightness Sun altitude
Rises 05:37:37 0° 23° (NNE) 3,216 6.5 -19.1°
Reaches altitude 10° 05:40:00 10° 29° (NNE) 2,291 5.8 -18.5°
Maximum altitude 05:44:49 46° 101° (ESE) 1,022 4.1 -17.3°
Drops below altitude 10° 05:49:39 10° 174° (S) 2,295 5.6 -16.1°
Sets 05:52:02 0° 180° (S) 3,221 6.3 -15.5°
